Location: Bishausen
(51.6334°N, 9.9631°E)
Time: 17:09:32
(UTC+00:00)

SL-8 R/B - Pass Details

Date: 23 May 2024
Orbit: 651 x 662 km, 48.4° (Epoch: 24 June)

Event Time Altitude Azimuth Distance (km) Brightness Sun altitude
Rises 00:58:32 0° 278° (W) 2,977 6.9 -14.4°
Reaches altitude 10° 01:01:05 10° 268° (W) 2,065 6.0 -14.2°
Maximum altitude 01:05:13 30° 208° (SSW) 1,172 4.4 -13.9°
Drops below altitude 10° 01:09:22 10° 147° (SSE) 2,064 5.9 -13.6°
Sets 01:11:55 0° 137° (SE) 2,975 6.9 -13.5°
